VGS146 EHRD-EHEH

Flight info

Callsign VGS146
Flight time 0h 24m
Altitude 7000
Route INKET
Aircraft K100/L-SBDGRY/S

Departure

Time 2026-05-04 17:08
Airport Rotterdam The Hague Airport (EHRD)

Arrival

Time 2026-05-04 17:33
Airport Eindhoven Airport (EHEH)
Time Latitude Longitude Altitude Speed Heading
2026-05-04 16:44 51.94918 4.42642 -3 ft 0 kts 232°
2026-05-04 17:00 51.94911 4.42593 -3 ft 0 kts 40°
2026-05-04 17:00 51.94992 4.42747 -3 ft 6 kts 56°
2026-05-04 17:01 51.95062 4.42921 -3 ft 12 kts 59°
2026-05-04 17:01 51.95108 4.42993 -3 ft 0 kts 281°
2026-05-04 17:07 51.95157 4.42902 -3 ft 15 kts 329°
2026-05-04 17:07 51.95219 4.42868 -2 ft 14 kts 22°
2026-05-04 17:07 51.95238 4.42898 -2 ft 3 kts 60°
2026-05-04 17:07 51.95419 4.43348 -4 ft 89 kts 58°
2026-05-04 17:08 51.95816 4.44403 123 ft 123 kts 55°
2026-05-04 17:08 51.96701 4.47038 645 ft 142 kts 64°
2026-05-04 17:08 51.97019 4.48580 931 ft 145 kts 71°
2026-05-04 17:09 51.97386 4.50105 1179 ft 144 kts 45°
2026-05-04 17:09 51.98098 4.51231 1417 ft 147 kts 49°
2026-05-04 17:09 51.98631 4.52666 1666 ft 150 kts 59°
2026-05-04 17:10 51.99618 4.55688 2158 ft 152 kts 60°
2026-05-04 17:10 52.00258 4.60531 3292 ft 145 kts 107°
2026-05-04 17:11 51.99765 4.61925 3787 ft 145 kts 129°
2026-05-04 17:11 51.98980 4.62927 4294 ft 144 kts 153°
2026-05-04 17:11 51.97215 4.64371 5301 ft 141 kts 154°
2026-05-04 17:12 51.96342 4.65089 5800 ft 140 kts 154°
2026-05-04 17:12 51.94622 4.66498 6787 ft 138 kts 154°
2026-05-04 17:13 51.91586 4.68957 6972 ft 181 kts 153°
2026-05-04 17:14 51.88116 4.71787 6966 ft 190 kts 154°
2026-05-04 17:14 51.86930 4.72750 6967 ft 191 kts 154°
2026-05-04 17:14 51.84540 4.74693 6968 ft 193 kts 154°
2026-05-04 17:15 51.83339 4.75671 6970 ft 193 kts 153°
2026-05-04 17:15 51.81051 4.77912 6970 ft 193 kts 131°
2026-05-04 17:16 51.79280 4.81183 6969 ft 194 kts 133°
2026-05-04 17:16 51.76581 4.86062 6969 ft 194 kts 131°
2026-05-04 17:17 51.75681 4.87693 6970 ft 195 kts 131°
2026-05-04 17:17 51.73729 4.93253 6972 ft 194 kts 101°
2026-05-04 17:18 51.73400 4.95363 6972 ft 194 kts 105°
2026-05-04 17:18 51.72596 4.99519 6973 ft 194 kts 107°
2026-05-04 17:19 51.71801 5.03675 6972 ft 194 kts 107°
2026-05-04 17:19 51.71006 5.07824 6972 ft 194 kts 107°
2026-05-04 17:20 51.70209 5.11971 6972 ft 194 kts 107°
2026-05-04 17:20 51.69408 5.16130 6971 ft 194 kts 107°
2026-05-04 17:20 51.69010 5.18202 6971 ft 194 kts 107°
2026-05-04 17:21 51.68211 5.22344 6972 ft 193 kts 107°
2026-05-04 17:21 51.67409 5.26480 6972 ft 193 kts 107°
2026-05-04 17:22 51.67008 5.28551 6973 ft 194 kts 107°
2026-05-04 17:22 51.66606 5.30620 6972 ft 194 kts 107°
2026-05-04 17:23 51.65401 5.36807 6972 ft 192 kts 108°
2026-05-04 17:23 51.65002 5.38854 6971 ft 192 kts 108°
2026-05-04 17:23 51.64129 5.42890 6969 ft 190 kts 121°
2026-05-04 17:24 51.63283 5.44516 6971 ft 190 kts 133°
2026-05-04 17:24 51.60725 5.49328 6357 ft 189 kts 130°
2026-05-04 17:25 51.59875 5.50932 5866 ft 187 kts 130°
2026-05-04 17:25 51.58201 5.54102 4947 ft 184 kts 130°
2026-05-04 17:26 51.56943 5.57546 4668 ft 184 kts 90°
2026-05-04 17:26 51.59341 5.62107 3952 ft 183 kts 31°
2026-05-04 17:27 51.61625 5.61524 3141 ft 181 kts 310°
2026-05-04 17:27 51.62113 5.57816 2375 ft 179 kts 234°
2026-05-04 17:28 51.60091 5.55876 2099 ft 171 kts 217°
2026-05-04 17:29 51.57441 5.52245 1974 ft 163 kts 220°
2026-05-04 17:29 51.55172 5.48343 1988 ft 160 kts 245°
2026-05-04 17:30 51.52450 5.47030 1783 ft 155 kts 220°
2026-05-04 17:31 51.51228 5.43926 1415 ft 171 kts 212°
2026-05-04 17:31 51.48573 5.41147 800 ft 120 kts 222°
2026-05-04 17:32 51.47257 5.39707 304 ft 110 kts 216°
2026-05-04 17:33 51.45755 5.38270 71 ft 57 kts 218°
2026-05-04 17:33 51.45522 5.38003 75 ft 25 kts 214°
2026-05-04 17:34 51.45428 5.37771 70 ft 0 kts 308°
2026-05-04 17:34 51.45432 5.37761 69 ft 4 kts 307°
2026-05-04 17:35 51.45579 5.37415 70 ft 13 kts 305°
2026-05-04 17:35 51.45680 5.37579 70 ft 15 kts 56°
2026-05-04 17:35 51.45743 5.37723 67 ft 13 kts 53°
2026-05-04 17:36 51.45777 5.37762 69 ft 0 kts 318°